Time,TemperatureF,DewpointF,PressureIn,WindDirection,WindDirectionDegrees,WindSpeedMPH,WindSpeedGustMPH,Humidity,HourlyPrecipIn,Conditions,Clouds,dailyrainin,SoftwareType,DateUTC
2013-01-20 00:02:00,34.3,34.0,30.25,ENE,71,6.0,13.0,99,0.00,,,0.00,Wunderground v.1.15,2013-01-20 08:02:00,
2013-01-20 00:08:00,34.4,34.1,30.25,ENE,64,6.0,13.0,99,0.00,,,0.00,Wunderground v.1.15,2013-01-20 08:08:00,
2013-01-20 00:13:00,34.5,34.2,30.24,ENE,64,5.0,7.0,99,0.00,,,0.00,Wunderground v.1.15,2013-01-20 08:13:00,
2013-01-20 00:19:00,34.5,34.2,30.24,NE,52,5.0,7.0,99,0.00,,,0.00,Wunderground v.1.15,2013-01-20 08:19:00,
2013-01-20 00:25:00,34.5,34.2,30.24,NE,47,4.0,6.0,99,0.00,,,0.00,Wunderground v.1.15,2013-01-20 08:25:00,
2013-01-20 00:30:00,34.5,34.2,30.24,NE,55,4.0,4.0,99,0.00,,,0.00,Wunderground v.1.15,2013-01-20 08:30:00,
2013-01-20 00:36:00,34.5,34.2,30.24,NE,39,4.0,4.0,99,0.00,,,0.00,Wunderground v.1.15,2013-01-20 08:36:00,
2013-01-20 00:42:00,34.4,34.1,30.24,NNE,27,4.0,4.0,99,0.00,,,0.00,Wunderground v.1.15,2013-01-20 08:42:00,
2013-01-20 00:48:00,34.3,34.0,30.24,ENE,57,4.0,5.0,99,0.00,,,0.00,Wunderground v.1.15,2013-01-20 08:48:00,
2013-01-20 00:54:00,34.2,33.9,30.24,NE,43,4.0,5.0,99,0.00,,,0.00,Wunderground v.1.15,2013-01-20 08:54:00,
2013-01-20 01:00:00,34.1,33.8,30.24,NE,51,4.0,4.0,99,0.00,,,0.00,Wunderground v.1.15,2013-01-20 09:00:00,
2013-01-20 01:06:00,34.1,33.8,30.24,NE,40,4.0,10.0,99,0.00,,,0.00,Wunderground v.1.15,2013-01-20 09:06:00,
2013-01-20 01:11:00,34.1,33.8,30.24,NE,42,4.0,10.0,99,0.00,,,0.00,Wunderground v.1.15,2013-01-20 09:11:00,
2013-01-20 01:16:00,34.0,33.7,30.24,NE,42,4.0,10.0,99,0.00,,,0.00,Wunderground v.1.15,2013-01-20 09:16:00,
2013-01-20 01:22:00,33.9,33.6,30.24,NE,36,4.0,10.0,99,0.00,,,0.00,Wunderground v.1.15,2013-01-20 09:22:00,
2013-01-20 01:27:00,33.8,33.5,30.24,NE,47,4.0,10.0,99,0.00,,,0.00,Wunderground v.1.15,2013-01-20 09:27:00,
2013-01-20 01:32:00,33.7,33.4,30.24,NE,38,4.0,10.0,99,0.00,,,0.00,Wunderground v.1.15,2013-01-20 09:32:00,
2013-01-20 01:38:00,33.7,33.4,30.24,NE,42,4.0,10.0,99,0.00,,,0.00,Wunderground v.1.15,2013-01-20 09:38:00,
2013-01-20 01:44:00,33.8,33.5,30.23,NE,36,4.0,10.0,99,0.00,,,0.00,Wunderground v.1.15,2013-01-20 09:44:00,
2013-01-20 01:50:00,33.5,33.2,30.24,NE,38,4.0,4.0,99,0.00,,,0.00,Wunderground v.1.15,2013-01-20 09:50:00,
2013-01-20 01:56:00,33.3,33.0,30.24,NE,34,4.0,10.0,99,0.00,,,0.00,Wunderground v.1.15,2013-01-20 09:56:00,
2013-01-20 02:02:00,33.4,33.1,30.24,NE,47,3.0,10.0,99,0.00,,,0.00,Wunderground v.1.15,2013-01-20 10:02:00,
2013-01-20 02:08:00,33.8,33.5,30.24,ENE,59,4.0,10.0,99,0.00,,,0.00,Wunderground v.1.15,2013-01-20 10:08:00,
2013-01-20 02:13:00,33.9,33.6,30.24,NE,42,4.0,10.0,99,0.00,,,0.00,Wunderground v.1.15,2013-01-20 10:13:00,
2013-01-20 02:19:00,33.8,33.5,30.24,ENE,63,4.0,10.0,99,0.00,,,0.00,Wunderground v.1.15,2013-01-20 10:19:00,
2013-01-20 02:24:00,33.6,33.3,30.24,ENE,62,5.0,10.0,99,0.00,,,0.00,Wunderground v.1.15,2013-01-20 10:24:00,
2013-01-20 02:29:00,33.3,33.0,30.24,ENE,63,6.0,10.0,99,0.00,,,0.00,Wunderground v.1.15,2013-01-20 10:29:00,
2013-01-20 02:34:00,33.3,33.0,30.24,NE,56,6.0,10.0,99,0.00,,,0.00,Wunderground v.1.15,2013-01-20 10:34:00,
2013-01-20 02:40:00,33.1,32.9,30.24,ENE,62,6.0,10.0,99,0.00,,,0.00,Wunderground v.1.15,2013-01-20 10:40:00,
2013-01-20 02:45:00,33.0,32.8,30.24,ENE,65,6.0,10.0,99,0.00,,,0.00,Wunderground v.1.15,2013-01-20 10:45:00,
2013-01-20 02:50:00,32.9,32.7,30.24,NNE,31,5.0,5.0,99,0.00,,,0.00,Wunderground v.1.15,2013-01-20 10:50:00,
2013-01-20 02:56:00,33.2,33.0,30.24,NE,51,4.0,10.0,99,0.00,,,0.00,Wunderground v.1.15,2013-01-20 10:56:00,
2013-01-20 03:01:00,33.3,33.0,30.24,ENE,69,3.0,10.0,99,0.00,,,0.00,Wunderground v.1.15,2013-01-20 11:01:00,
2013-01-20 03:06:00,33.1,32.9,30.24,ENE,69,4.0,10.0,99,0.00,,,0.00,Wunderground v.1.15,2013-01-20 11:06:00,
2013-01-20 03:12:00,32.6,32.4,30.24,ENE,66,5.0,10.0,99,0.00,,,0.00,Wunderground v.1.15,2013-01-20 11:12:00,
2013-01-20 03:17:00,32.3,32.1,30.24,ENE,69,4.0,10.0,99,0.00,,,0.00,Wunderground v.1.15,2013-01-20 11:17:00,
2013-01-20 03:22:00,32.3,32.1,30.24,ENE,75,4.0,10.0,99,0.00,,,0.00,Wunderground v.1.15,2013-01-20 11:22:00,
2013-01-20 03:28:00,32.2,32.0,30.24,ENE,75,3.0,10.0,99,0.00,,,0.00,Wunderground v.1.15,2013-01-20 11:28:00,
2013-01-20 03:33:00,32.0,31.8,30.24,ENE,75,3.0,10.0,99,0.00,,,0.00,Wunderground v.1.15,2013-01-20 11:33:00,
2013-01-20 03:39:00,31.9,31.7,30.24,ENE,75,3.0,10.0,99,0.00,,,0.00,Wunderground v.1.15,2013-01-20 11:39:00,
2013-01-20 03:44:00,31.8,31.6,30.24,ENE,75,3.0,10.0,99,0.00,,,0.00,Wunderground v.1.15,2013-01-20 11:44:00,
2013-01-20 03:49:00,31.8,31.6,30.24,ENE,75,3.0,10.0,99,0.00,,,0.00,Wunderground v.1.15,2013-01-20 11:49:00,
2013-01-20 03:55:00,31.8,31.6,30.24,ENE,76,3.0,10.0,99,0.00,,,0.00,Wunderground v.1.15,2013-01-20 11:55:00,
2013-01-20 04:01:00,31.6,31.4,30.24,ENE,76,3.0,10.0,99,0.00,,,0.00,Wunderground v.1.15,2013-01-20 12:01:00,
2013-01-20 04:06:00,31.3,31.1,30.24,ENE,76,2.0,10.0,99,0.00,,,0.00,Wunderground v.1.15,2013-01-20 12:06:00,
2013-01-20 04:12:00,31.2,31.0,30.24,ENE,76,1.0,10.0,99,0.00,,,0.00,Wunderground v.1.15,2013-01-20 12:12:00,
2013-01-20 04:18:00,31.0,30.8,30.23,ENE,76,2.0,10.0,99,0.00,,,0.00,Wunderground v.1.15,2013-01-20 12:18:00,
2013-01-20 04:24:00,30.8,30.6,30.23,ENE,76,2.0,10.0,99,0.00,,,0.00,Wunderground v.1.15,2013-01-20 12:24:00,
2013-01-20 04:29:00,30.6,30.4,30.23,ENE,76,1.0,10.0,99,0.00,,,0.00,Wunderground v.1.15,2013-01-20 12:29:00,
2013-01-20 04:34:00,30.4,30.2,30.23,ENE,76,0.0,10.0,99,0.00,,,0.00,Wunderground v.1.15,2013-01-20 12:34:00,
2013-01-20 04:40:00,30.0,29.8,30.23,ENE,76,1.0,10.0,99,0.00,,,0.00,Wunderground v.1.15,2013-01-20 12:40:00,
2013-01-20 04:46:00,30.4,30.2,30.23,ENE,76,1.0,10.0,99,0.00,,,0.00,Wunderground v.1.15,2013-01-20 12:46:00,
2013-01-20 04:51:00,30.5,30.3,30.24,ENE,76,1.0,10.0,99,0.00,,,0.00,Wunderground v.1.15,2013-01-20 12:51:00,
2013-01-20 04:56:00,30.6,30.4,30.24,ENE,76,0.0,10.0,99,0.00,,,0.00,Wunderground v.1.15,2013-01-20 12:56:00,
2013-01-20 05:02:00,30.9,30.7,30.23,ENE,76,1.0,10.0,99,0.00,,,0.00,Wunderground v.1.15,2013-01-20 13:02:00,
2013-01-20 05:07:00,30.9,30.7,30.23,ENE,76,1.0,10.0,99,0.00,,,0.00,Wunderground v.1.15,2013-01-20 13:07:00,
2013-01-20 05:13:00,30.7,30.5,30.23,ENE,76,0.0,10.0,99,0.00,,,0.00,Wunderground v.1.15,2013-01-20 13:13:00,
2013-01-20 05:19:00,30.5,30.3,30.23,ENE,76,1.0,10.0,99,0.00,,,0.00,Wunderground v.1.15,2013-01-20 13:19:00,
2013-01-20 05:25:00,30.8,30.6,30.23,ENE,76,2.0,10.0,99,0.00,,,0.00,Wunderground v.1.15,2013-01-20 13:25:00,
2013-01-20 05:31:00,30.9,30.7,30.23,ENE,76,2.0,10.0,99,0.00,,,0.00,Wunderground v.1.15,2013-01-20 13:31:00,
2013-01-20 05:36:00,30.7,30.5,30.23,ENE,76,2.0,10.0,99,0.00,,,0.00,Wunderground v.1.15,2013-01-20 13:36:00,
2013-01-20 05:42:00,30.3,30.1,30.23,ENE,76,1.0,10.0,99,0.00,,,0.00,Wunderground v.1.15,2013-01-20 13:42:00,
2013-01-20 05:47:00,30.0,29.8,30.23,ENE,76,1.0,10.0,99,0.00,,,0.00,Wunderground v.1.15,2013-01-20 13:47:00,
2013-01-20 05:53:00,29.7,29.5,30.23,ENE,76,2.0,10.0,99,0.00,,,0.00,Wunderground v.1.15,2013-01-20 13:53:00,
2013-01-20 05:59:00,29.5,29.3,30.23,ENE,76,2.0,10.0,99,0.00,,,0.00,Wunderground v.1.15,2013-01-20 13:59:00,
2013-01-20 06:04:00,29.4,29.2,30.23,ENE,76,2.0,10.0,99,0.00,,,0.00,Wunderground v.1.15,2013-01-20 14:04:00,
2013-01-20 06:09:00,29.6,29.4,30.23,ENE,76,2.0,10.0,99,0.00,,,0.00,Wunderground v.1.15,2013-01-20 14:09:00,
2013-01-20 06:14:00,29.7,29.5,30.23,ENE,76,2.0,10.0,99,0.00,,,0.00,Wunderground v.1.15,2013-01-20 14:14:00,
2013-01-20 06:19:00,29.6,29.4,30.23,ENE,76,1.0,10.0,99,0.00,,,0.00,Wunderground v.1.15,2013-01-20 14:19:00,
2013-01-20 06:25:00,29.5,29.3,30.23,ENE,76,0.0,10.0,99,0.00,,,0.00,Wunderground v.1.15,2013-01-20 14:25:00,
2013-01-20 06:31:00,29.4,29.2,30.23,ENE,76,0.0,10.0,99,0.00,,,0.00,Wunderground v.1.15,2013-01-20 14:31:00,
2013-01-20 06:37:00,29.2,29.0,30.23,ENE,76,1.0,10.0,99,0.00,,,0.00,Wunderground v.1.15,2013-01-20 14:37:00,
2013-01-20 06:43:00,29.1,28.9,30.23,ENE,76,0.0,10.0,99,0.00,,,0.00,Wunderground v.1.15,2013-01-20 14:43:00,
2013-01-20 06:49:00,29.1,28.9,30.23,ENE,76,0.0,10.0,99,0.00,,,0.00,Wunderground v.1.15,2013-01-20 14:49:00,
2013-01-20 06:54:00,29.1,28.9,30.23,ENE,76,0.0,10.0,99,0.00,,,0.00,Wunderground v.1.15,2013-01-20 14:54:00,
2013-01-20 07:00:00,29.2,29.0,30.23,ENE,76,0.0,10.0,99,0.00,,,0.00,Wunderground v.1.15,2013-01-20 15:00:00,
2013-01-20 07:06:00,29.2,29.0,30.23,ENE,76,0.0,10.0,99,0.00,,,0.00,Wunderground v.1.15,2013-01-20 15:06:00,
2013-01-20 07:12:00,29.1,28.9,30.23,ENE,76,0.0,10.0,99,0.00,,,0.00,Wunderground v.1.15,2013-01-20 15:12:00,
2013-01-20 07:17:00,29.2,29.0,30.23,ENE,76,0.0,10.0,99,0.00,,,0.00,Wunderground v.1.15,2013-01-20 15:17:00,
2013-01-20 07:23:00,29.1,28.9,30.23,ENE,76,0.0,10.0,99,0.00,,,0.00,Wunderground v.1.15,2013-01-20 15:23:00,
2013-01-20 07:29:00,28.9,28.7,30.23,ENE,76,0.0,10.0,99,0.00,,,0.00,Wunderground v.1.15,2013-01-20 15:29:00,
2013-01-20 07:34:00,29.0,28.8,30.23,ENE,76,1.0,10.0,99,0.00,,,0.00,Wunderground v.1.15,2013-01-20 15:34:00,
2013-01-20 07:39:00,29.0,28.8,30.23,ENE,76,0.0,10.0,99,0.00,,,0.00,Wunderground v.1.15,2013-01-20 15:39:00,
2013-01-20 07:44:00,29.0,28.8,30.23,ENE,76,0.0,10.0,99,0.00,,,0.00,Wunderground v.1.15,2013-01-20 15:44:00,
2013-01-20 07:50:00,28.7,28.5,30.23,ENE,76,0.0,10.0,99,0.00,,,0.00,Wunderground v.1.15,2013-01-20 15:50:00,
2013-01-20 07:55:00,28.6,28.4,30.23,ENE,76,0.0,10.0,99,0.00,,,0.00,Wunderground v.1.15,2013-01-20 15:55:00,
2013-01-20 08:01:00,28.7,28.5,30.23,ENE,76,1.0,10.0,99,0.00,,,0.00,Wunderground v.1.15,2013-01-20 16:01:00,
2013-01-20 08:07:00,28.7,28.5,30.23,ENE,76,1.0,10.0,99,0.00,,,0.00,Wunderground v.1.15,2013-01-20 16:07:00,
2013-01-20 08:12:00,28.9,28.7,30.23,ENE,76,1.0,10.0,99,0.00,,,0.00,Wunderground v.1.15,2013-01-20 16:12:00,
2013-01-20 08:18:00,29.0,28.8,30.23,ENE,76,1.0,10.0,99,0.00,,,0.00,Wunderground v.1.15,2013-01-20 16:18:00,
2013-01-20 08:23:00,29.0,28.8,30.23,ENE,76,0.0,10.0,99,0.00,,,0.00,Wunderground v.1.15,2013-01-20 16:23:00,
2013-01-20 08:28:00,29.2,29.0,30.23,ENE,76,0.0,10.0,99,0.00,,,0.00,Wunderground v.1.15,2013-01-20 16:28:00,
2013-01-20 08:34:00,29.5,29.3,30.23,ENE,76,0.0,10.0,99,0.00,,,0.00,Wunderground v.1.15,2013-01-20 16:34:00,
2013-01-20 08:40:00,29.7,29.5,30.23,ENE,76,0.0,10.0,99,0.00,,,0.00,Wunderground v.1.15,2013-01-20 16:40:00,
2013-01-20 08:45:00,30.0,29.8,30.23,ENE,76,0.0,10.0,99,0.00,,,0.00,Wunderground v.1.15,2013-01-20 16:45:00,
2013-01-20 08:50:00,30.3,30.1,30.23,ENE,76,1.0,10.0,99,0.00,,,0.00,Wunderground v.1.15,2013-01-20 16:50:00,
2013-01-20 08:56:00,30.6,30.4,30.23,ENE,76,1.0,10.0,99,0.00,,,0.00,Wunderground v.1.15,2013-01-20 16:56:00,
2013-01-20 09:02:00,30.9,30.7,30.23,ENE,76,2.0,10.0,99,0.00,,,0.00,Wunderground v.1.15,2013-01-20 17:02:00,
2013-01-20 09:07:00,31.1,30.9,30.23,ENE,76,2.0,10.0,99,0.00,,,0.00,Wunderground v.1.15,2013-01-20 17:07:00,
2013-01-20 09:12:00,31.3,31.1,30.23,ENE,76,2.0,10.0,99,0.00,,,0.00,Wunderground v.1.15,2013-01-20 17:12:00,
2013-01-20 09:17:00,31.7,31.5,30.23,ENE,76,2.0,10.0,99,0.00,,,0.00,Wunderground v.1.15,2013-01-20 17:17:00,
2013-01-20 10:11:00,35.3,35.3,30.25,ENE,76,1.0,1.0,100,0.00,,,0.01,Wunderground v.1.15,2013-01-20 18:11:00,
2013-01-20 10:17:00,36.0,35.7,30.25,ENE,76,1.0,2.0,99,0.00,,,0.01,Wunderground v.1.15,2013-01-20 18:17:00,
2013-01-20 10:22:00,36.5,36.2,30.25,ENE,76,2.0,3.0,99,0.00,,,0.01,Wunderground v.1.15,2013-01-20 18:22:00,
2013-01-20 10:27:00,36.9,36.9,30.25,ENE,76,2.0,3.0,100,0.00,,,0.01,Wunderground v.1.15,2013-01-20 18:27:00,
2013-01-20 10:32:00,37.0,36.7,30.25,ENE,76,2.0,2.0,99,0.00,,,0.01,Wunderground v.1.15,2013-01-20 18:32:00,
2013-01-20 10:38:00,37.1,36.8,30.25,ENE,76,2.0,3.0,99,0.00,,,0.01,Wunderground v.1.15,2013-01-20 18:38:00,
2013-01-20 10:44:00,37.1,36.8,30.25,ENE,76,2.0,3.0,99,0.00,,,0.01,Wunderground v.1.15,2013-01-20 18:44:00,
2013-01-20 10:50:00,37.5,37.2,30.25,ENE,76,2.0,3.0,99,0.00,,,0.01,Wunderground v.1.15,2013-01-20 18:50:00,
2013-01-20 10:56:00,37.8,37.5,30.24,ENE,76,2.0,3.0,99,0.00,,,0.01,Wunderground v.1.15,2013-01-20 18:56:00,
2013-01-20 11:14:00,38.5,38.2,30.24,ENE,76,1.0,1.0,99,0.00,,,0.01,Wunderground v.1.15,2013-01-20 19:14:00,
2013-01-20 11:20:00,38.7,38.4,30.24,ENE,76,1.0,1.0,99,0.00,,,0.01,Wunderground v.1.15,2013-01-20 19:20:00,
2013-01-20 11:25:00,38.8,38.3,30.24,ENE,76,1.0,1.0,98,0.00,,,0.01,Wunderground v.1.15,2013-01-20 19:25:00,
2013-01-20 11:31:00,39.2,38.9,30.24,ENE,76,0.0,1.0,99,0.00,,,0.01,Wunderground v.1.15,2013-01-20 19:31:00,
2013-01-20 11:36:00,39.3,38.8,30.23,ENE,76,0.0,1.0,98,0.00,,,0.01,Wunderground v.1.15,2013-01-20 19:36:00,
2013-01-20 11:42:00,40.0,39.5,30.23,ESE,102,2.0,5.0,98,0.00,,,0.01,Wunderground v.1.15,2013-01-20 19:42:00,
2013-01-20 11:47:00,40.8,40.3,30.23,ESE,102,2.0,4.0,98,0.00,,,0.01,Wunderground v.1.15,2013-01-20 19:47:00,
2013-01-20 11:52:00,41.1,40.6,30.23,ESE,102,2.0,4.0,98,0.00,,,0.01,Wunderground v.1.15,2013-01-20 19:52:00,
2013-01-20 11:58:00,41.5,41.0,30.22,ESE,103,3.0,3.0,98,0.00,,,0.01,Wunderground v.1.15,2013-01-20 19:58:00,
2013-01-20 12:03:00,42.0,41.2,30.22,SE,132,3.0,4.0,97,0.00,,,0.01,Wunderground v.1.15,2013-01-20 20:03:00,
2013-01-20 12:09:00,42.3,41.5,30.22,SE,139,3.0,6.0,97,0.00,,,0.01,Wunderground v.1.15,2013-01-20 20:09:00,
2013-01-20 12:15:00,42.4,41.3,30.22,SE,141,3.0,4.0,96,0.00,,,0.01,Wunderground v.1.15,2013-01-20 20:15:00,
2013-01-20 12:21:00,42.6,41.5,30.21,SE,141,3.0,4.0,96,0.00,,,0.01,Wunderground v.1.15,2013-01-20 20:21:00,
2013-01-20 12:26:00,42.6,41.3,30.21,SE,141,3.0,4.0,95,0.00,,,0.01,Wunderground v.1.15,2013-01-20 20:26:00,
2013-01-20 12:32:00,42.7,41.4,30.21,SE,145,3.0,4.0,95,0.00,,,0.01,Wunderground v.1.15,2013-01-20 20:32:00,
2013-01-20 12:37:00,42.5,40.9,30.21,South,181,3.0,5.0,94,0.00,,,0.01,Wunderground v.1.15,2013-01-20 20:37:00,
2013-01-20 12:43:00,42.2,40.3,30.21,SSW,196,3.0,6.0,93,0.00,,,0.01,Wunderground v.1.15,2013-01-20 20:43:00,
2013-01-20 12:49:00,42.0,40.1,30.21,SSW,197,3.0,6.0,93,0.00,,,0.01,Wunderground v.1.15,2013-01-20 20:49:00,
2013-01-20 12:55:00,42.2,40.3,30.21,SSW,197,2.0,4.0,93,0.00,,,0.01,Wunderground v.1.15,2013-01-20 20:55:00,
2013-01-20 13:00:00,42.3,40.4,30.20,SSW,197,2.0,4.0,93,0.00,,,0.01,Wunderground v.1.15,2013-01-20 21:00:00,
2013-01-20 13:07:00,42.6,40.7,30.20,SSW,197,2.0,4.0,93,0.00,,,0.01,Wunderground v.1.15,2013-01-20 21:07:00,
2013-01-20 13:12:00,42.9,41.0,30.20,SSW,197,2.0,4.0,93,0.00,,,0.01,Wunderground v.1.15,2013-01-20 21:12:00,
2013-01-20 13:18:00,42.9,41.0,30.20,SSW,197,2.0,4.0,93,0.00,,,0.01,Wunderground v.1.15,2013-01-20 21:18:00,
2013-01-20 13:24:00,43.1,41.2,30.20,SSW,197,2.0,4.0,93,0.00,,,0.01,Wunderground v.1.15,2013-01-20 21:24:00,
2013-01-20 13:29:00,43.0,40.8,30.20,SSW,197,2.0,4.0,92,0.00,,,0.01,Wunderground v.1.15,2013-01-20 21:29:00,
2013-01-20 13:34:00,43.1,40.9,30.19,SSW,197,2.0,4.0,92,0.00,,,0.01,Wunderground v.1.15,2013-01-20 21:34:00,
2013-01-20 13:39:00,43.1,40.9,30.19,SSW,197,2.0,4.0,92,0.00,,,0.01,Wunderground v.1.15,2013-01-20 21:39:00,
2013-01-20 13:45:00,43.1,40.7,30.19,SSW,197,2.0,4.0,91,0.00,,,0.01,Wunderground v.1.15,2013-01-20 21:45:00,
2013-01-20 13:51:00,43.2,40.8,30.19,SSW,197,2.0,4.0,91,0.00,,,0.01,Wunderground v.1.15,2013-01-20 21:51:00,
2013-01-20 13:57:00,43.6,41.1,30.19,SSW,197,2.0,4.0,91,0.00,,,0.01,Wunderground v.1.15,2013-01-20 21:57:00,
2013-01-20 14:03:00,43.9,41.2,30.19,SSW,197,2.0,4.0,90,0.00,,,0.01,Wunderground v.1.15,2013-01-20 22:03:00,
2013-01-20 14:09:00,43.9,41.2,30.19,SSW,197,2.0,4.0,90,0.00,,,0.01,Wunderground v.1.15,2013-01-20 22:09:00,
2013-01-20 14:14:00,44.0,41.0,30.18,SSW,197,2.0,4.0,89,0.00,,,0.01,Wunderground v.1.15,2013-01-20 22:14:00,
2013-01-20 14:19:00,44.0,41.0,30.18,SSW,197,2.0,4.0,89,0.00,,,0.01,Wunderground v.1.15,2013-01-20 22:19:00,
2013-01-20 14:25:00,44.1,40.8,30.18,SSW,197,2.0,4.0,88,0.00,,,0.01,Wunderground v.1.15,2013-01-20 22:25:00,
2013-01-20 14:30:00,44.4,41.4,30.18,SSW,197,2.0,2.0,89,0.00,,,0.01,Wunderground v.1.15,2013-01-20 22:30:00,
2013-01-20 14:36:00,44.9,41.6,30.18,SSW,197,2.0,4.0,88,0.00,,,0.01,Wunderground v.1.15,2013-01-20 22:36:00,
2013-01-20 14:42:00,45.0,41.7,30.18,SSW,197,2.0,4.0,88,0.00,,,0.01,Wunderground v.1.15,2013-01-20 22:42:00,
2013-01-20 14:47:00,45.2,41.3,30.18,SSW,197,2.0,4.0,86,0.00,,,0.01,Wunderground v.1.15,2013-01-20 22:47:00,
2013-01-20 14:53:00,45.5,41.9,30.17,SSW,197,2.0,4.0,87,0.00,,,0.01,Wunderground v.1.15,2013-01-20 22:53:00,
2013-01-20 14:59:00,45.6,42.3,30.17,SSW,197,3.0,4.0,88,0.00,,,0.01,Wunderground v.1.15,2013-01-20 22:59:00,
2013-01-20 15:05:00,45.4,41.8,30.17,SSW,197,2.0,4.0,87,0.00,,,0.01,Wunderground v.1.15,2013-01-20 23:05:00,
2013-01-20 15:11:00,45.4,41.5,30.17,SSW,197,2.0,4.0,86,0.00,,,0.01,Wunderground v.1.15,2013-01-20 23:11:00,
2013-01-20 15:17:00,45.6,41.7,30.16,SSW,197,3.0,4.0,86,0.00,,,0.01,Wunderground v.1.15,2013-01-20 23:17:00,
2013-01-20 15:22:00,45.9,42.2,30.16,SSW,197,2.0,4.0,87,0.00,,,0.01,Wunderground v.1.15,2013-01-20 23:22:00,
2013-01-20 15:28:00,46.0,42.0,30.16,SSW,197,2.0,4.0,86,0.00,,,0.01,Wunderground v.1.15,2013-01-20 23:28:00,
2013-01-20 15:34:00,46.1,42.1,30.16,SSW,197,2.0,4.0,86,0.00,,,0.01,Wunderground v.1.15,2013-01-20 23:34:00,
2013-01-20 15:40:00,45.7,41.8,30.16,SSW,197,3.0,3.0,86,0.00,,,0.01,Wunderground v.1.15,2013-01-20 23:40:00,
2013-01-20 15:45:00,45.6,41.7,30.16,SSW,197,4.0,4.0,86,0.00,,,0.01,Wunderground v.1.15,2013-01-20 23:45:00,
2013-01-20 15:51:00,45.6,41.7,30.16,SSW,201,4.0,4.0,86,0.00,,,0.01,Wunderground v.1.15,2013-01-20 23:51:00,
2013-01-20 15:56:00,45.5,41.6,30.15,WSW,244,4.0,6.0,86,0.00,,,0.01,Wunderground v.1.15,2013-01-20 23:56:00,
2013-01-20 16:18:00,45.3,41.4,30.16,NNW,346,5.0,5.0,86,0.00,,,0.01,Wunderground v.1.15,2013-01-21 00:18:00,
2013-01-20 16:24:00,45.3,41.7,30.16,NNW,346,5.0,5.0,87,0.00,,,0.01,Wunderground v.1.15,2013-01-21 00:24:00,
2013-01-20 16:29:00,45.3,41.7,30.16,NNW,346,5.0,6.0,87,0.00,,,0.01,Wunderground v.1.15,2013-01-21 00:29:00,
2013-01-20 16:35:00,45.2,41.9,30.16,NNW,346,4.0,6.0,88,0.00,,,0.01,Wunderground v.1.15,2013-01-21 00:35:00,
2013-01-20 16:41:00,45.1,41.8,30.16,NNW,346,4.0,5.0,88,0.00,,,0.01,Wunderground v.1.15,2013-01-21 00:41:00,
2013-01-20 16:47:00,45.0,41.7,30.16,NNW,346,4.0,6.0,88,0.00,,,0.01,Wunderground v.1.15,2013-01-21 00:47:00,
2013-01-20 16:53:00,44.8,41.5,30.16,NNW,346,4.0,6.0,88,0.00,,,0.01,Wunderground v.1.15,2013-01-21 00:53:00,
2013-01-20 16:59:00,44.8,41.8,30.16,NNW,346,4.0,5.0,89,0.00,,,0.01,Wunderground v.1.15,2013-01-21 00:59:00,
2013-01-20 17:04:00,44.5,41.5,30.16,NNW,346,4.0,6.0,89,0.00,,,0.01,Wunderground v.1.15,2013-01-21 01:04:00,
2013-01-20 17:09:00,44.4,41.7,30.17,NNW,346,4.0,6.0,90,0.00,,,0.01,Wunderground v.1.15,2013-01-21 01:09:00,
2013-01-20 17:15:00,44.4,41.7,30.17,NNW,346,4.0,6.0,90,0.00,,,0.01,Wunderground v.1.15,2013-01-21 01:15:00,
2013-01-20 17:21:00,44.2,41.5,30.17,NNW,346,4.0,5.0,90,0.00,,,0.01,Wunderground v.1.15,2013-01-21 01:21:00,
2013-01-20 17:27:00,44.3,41.6,30.17,NNW,346,4.0,6.0,90,0.00,,,0.01,Wunderground v.1.15,2013-01-21 01:27:00,
2013-01-20 17:32:00,44.2,41.5,30.17,NNW,346,3.0,6.0,90,0.00,,,0.01,Wunderground v.1.15,2013-01-21 01:32:00,
2013-01-20 17:37:00,44.1,41.4,30.17,NNW,346,2.0,6.0,90,0.00,,,0.01,Wunderground v.1.15,2013-01-21 01:37:00,
2013-01-20 17:43:00,43.9,41.2,30.17,NNW,346,1.0,6.0,90,0.00,,,0.01,Wunderground v.1.15,2013-01-21 01:43:00,
2013-01-20 17:49:00,43.7,41.0,30.17,NNW,346,1.0,6.0,90,0.00,,,0.01,Wunderground v.1.15,2013-01-21 01:49:00,
2013-01-20 17:55:00,43.0,40.3,30.17,NNW,346,0.0,6.0,90,0.00,,,0.01,Wunderground v.1.15,2013-01-21 01:55:00,
2013-01-20 18:00:00,42.5,39.8,30.17,NNW,346,0.0,6.0,90,0.00,,,0.01,Wunderground v.1.15,2013-01-21 02:00:00,
2013-01-20 18:05:00,42.0,39.3,30.17,NNW,346,0.0,6.0,90,0.00,,,0.01,Wunderground v.1.15,2013-01-21 02:05:00,
2013-01-20 18:10:00,41.6,38.9,30.17,NNW,346,0.0,6.0,90,0.00,,,0.01,Wunderground v.1.15,2013-01-21 02:10:00,
2013-01-20 18:15:00,41.2,38.5,30.17,NNW,346,0.0,6.0,90,0.00,,,0.01,Wunderground v.1.15,2013-01-21 02:15:00,
2013-01-20 18:21:00,40.9,38.5,30.17,NNW,346,0.0,6.0,91,0.00,,,0.01,Wunderground v.1.15,2013-01-21 02:21:00,
2013-01-20 18:27:00,40.5,38.1,30.17,NNW,346,0.0,6.0,91,0.00,,,0.01,Wunderground v.1.15,2013-01-21 02:27:00,
2013-01-20 18:33:00,40.3,38.2,30.17,NNW,346,0.0,6.0,92,0.00,,,0.01,Wunderground v.1.15,2013-01-21 02:33:00,
2013-01-20 18:39:00,40.2,38.1,30.17,NNW,346,0.0,6.0,92,0.00,,,0.01,Wunderground v.1.15,2013-01-21 02:39:00,
2013-01-20 18:44:00,40.0,37.9,30.17,NNW,346,0.0,6.0,92,0.00,,,0.01,Wunderground v.1.15,2013-01-21 02:44:00,
2013-01-20 18:49:00,40.1,38.2,30.17,NNW,346,1.0,6.0,93,0.00,,,0.01,Wunderground v.1.15,2013-01-21 02:49:00,
2013-01-20 18:55:00,40.2,38.3,30.17,NNW,346,1.0,6.0,93,0.00,,,0.01,Wunderground v.1.15,2013-01-21 02:55:00,
2013-01-20 19:00:00,40.0,38.1,30.17,NNW,346,1.0,1.0,93,0.00,,,0.01,Wunderground v.1.15,2013-01-21 03:00:00,
2013-01-20 19:05:00,39.5,37.6,30.17,NNW,346,1.0,6.0,93,0.00,,,0.01,Wunderground v.1.15,2013-01-21 03:05:00,
2013-01-20 19:10:00,39.5,37.6,30.17,NNW,346,1.0,1.0,93,0.00,,,0.01,Wunderground v.1.15,2013-01-21 03:10:00,
2013-01-20 19:16:00,39.1,37.2,30.17,NNW,346,1.0,6.0,93,0.00,,,0.01,Wunderground v.1.15,2013-01-21 03:16:00,
2013-01-20 19:21:00,38.8,36.9,30.17,NNW,346,1.0,6.0,93,0.00,,,0.01,Wunderground v.1.15,2013-01-21 03:21:00,
2013-01-20 19:27:00,38.6,36.8,30.17,NNW,346,1.0,6.0,93,0.00,,,0.01,Wunderground v.1.15,2013-01-21 03:27:00,
2013-01-20 19:33:00,38.1,36.5,30.17,NNW,346,2.0,6.0,94,0.00,,,0.01,Wunderground v.1.15,2013-01-21 03:33:00,
2013-01-20 19:38:00,37.8,36.2,30.17,NNW,346,2.0,6.0,94,0.00,,,0.01,Wunderground v.1.15,2013-01-21 03:38:00,
2013-01-20 19:43:00,37.8,36.2,30.17,NNW,346,1.0,6.0,94,0.00,,,0.01,Wunderground v.1.15,2013-01-21 03:43:00,
2013-01-20 19:49:00,37.8,36.2,30.17,NNW,346,1.0,6.0,94,0.00,,,0.01,Wunderground v.1.15,2013-01-21 03:49:00,
2013-01-20 19:54:00,37.7,36.1,30.17,NNW,346,1.0,6.0,94,0.00,,,0.01,Wunderground v.1.15,2013-01-21 03:54:00,
2013-01-20 20:00:00,37.5,36.2,30.17,NNW,346,2.0,6.0,95,0.00,,,0.01,Wunderground v.1.15,2013-01-21 04:00:00,
2013-01-20 20:06:00,37.4,35.8,30.17,NNW,346,2.0,6.0,94,0.00,,,0.01,Wunderground v.1.15,2013-01-21 04:06:00,
2013-01-20 20:12:00,36.9,35.3,30.16,NNW,346,2.0,6.0,94,0.00,,,0.01,Wunderground v.1.15,2013-01-21 04:12:00,
2013-01-20 20:17:00,36.7,35.4,30.16,NNW,346,2.0,6.0,95,0.00,,,0.01,Wunderground v.1.15,2013-01-21 04:17:00,
2013-01-20 20:23:00,36.2,34.6,30.16,NNW,346,2.0,6.0,94,0.00,,,0.01,Wunderground v.1.15,2013-01-21 04:23:00,
2013-01-20 20:29:00,36.0,34.7,30.16,NNW,346,2.0,6.0,95,0.00,,,0.01,Wunderground v.1.15,2013-01-21 04:29:00,
2013-01-20 20:35:00,36.2,34.9,30.16,NNW,346,3.0,6.0,95,0.00,,,0.01,Wunderground v.1.15,2013-01-21 04:35:00,
2013-01-20 20:41:00,36.5,35.5,30.16,NNW,346,3.0,6.0,96,0.00,,,0.01,Wunderground v.1.15,2013-01-21 04:41:00,
2013-01-20 20:47:00,36.7,35.7,30.16,NNW,346,2.0,6.0,96,0.00,,,0.01,Wunderground v.1.15,2013-01-21 04:47:00,
2013-01-20 20:53:00,36.6,35.3,30.17,NNW,346,2.0,6.0,95,0.00,,,0.01,Wunderground v.1.15,2013-01-21 04:53:00,
2013-01-20 20:59:00,36.2,34.9,30.17,NNW,346,2.0,6.0,95,0.00,,,0.01,Wunderground v.1.15,2013-01-21 04:59:00,
2013-01-20 21:00:00,36.2,34.9,30.17,NNW,346,2.0,6.0,95,0.00,,,0.01,Wunderground v.1.15,2013-01-21 05:00:00,
2013-01-20 21:01:00,36.1,34.8,30.17,NNW,346,2.0,6.0,95,0.00,,,0.01,Wunderground v.1.15,2013-01-21 05:01:00,
2013-01-20 21:04:00,35.9,34.6,30.17,NNW,346,2.0,6.0,95,0.00,,,0.01,Wunderground v.1.15,2013-01-21 05:04:00,
2013-01-20 21:06:00,35.8,34.5,30.17,NNW,346,2.0,6.0,95,0.00,,,0.01,Wunderground v.1.15,2013-01-21 05:06:00,
2013-01-20 21:11:00,35.7,34.7,30.17,NNW,346,2.0,3.0,96,0.00,,,0.01,Wunderground v.1.15,2013-01-21 05:11:00,
2013-01-20 21:17:00,35.2,33.9,30.17,NNW,346,2.0,6.0,95,0.00,,,0.01,Wunderground v.1.15,2013-01-21 05:17:00,
2013-01-20 21:23:00,34.2,32.9,30.16,North,5,5.0,6.0,95,0.00,,,0.01,Wunderground v.1.15,2013-01-21 05:23:00,
2013-01-20 21:28:00,34.0,33.0,30.16,North,5,3.0,6.0,96,0.00,,,0.01,Wunderground v.1.15,2013-01-21 05:28:00,
2013-01-20 21:34:00,34.4,33.4,30.16,North,5,2.0,6.0,96,0.00,,,0.01,Wunderground v.1.15,2013-01-21 05:34:00,
2013-01-20 21:39:00,34.7,33.7,30.16,North,5,2.0,6.0,96,0.00,,,0.01,Wunderground v.1.15,2013-01-21 05:39:00,
2013-01-20 21:44:00,34.9,33.9,30.16,North,5,3.0,6.0,96,0.00,,,0.01,Wunderground v.1.15,2013-01-21 05:44:00,
2013-01-20 21:49:00,35.1,34.3,30.16,NNE,21,4.0,6.0,97,0.00,,,0.01,Wunderground v.1.15,2013-01-21 05:49:00,
2013-01-20 21:55:00,35.0,34.0,30.16,NNE,21,3.0,6.0,96,0.00,,,0.01,Wunderground v.1.15,2013-01-21 05:55:00,
2013-01-20 22:01:00,34.8,33.8,30.16,NNE,21,1.0,6.0,96,0.00,,,0.01,Wunderground v.1.15,2013-01-21 06:01:00,
2013-01-20 22:07:00,34.4,33.4,30.17,NNE,21,0.0,6.0,96,0.00,,,0.01,Wunderground v.1.15,2013-01-21 06:07:00,
2013-01-20 22:12:00,34.7,33.9,30.17,NNE,21,1.0,6.0,97,0.00,,,0.01,Wunderground v.1.15,2013-01-21 06:12:00,
2013-01-20 22:18:00,35.3,34.5,30.17,NNE,21,1.0,6.0,97,0.00,,,0.01,Wunderground v.1.15,2013-01-21 06:18:00,
2013-01-20 22:23:00,35.7,34.9,30.18,NNE,21,0.0,6.0,97,0.00,,,0.01,Wunderground v.1.15,2013-01-21 06:23:00,
2013-01-20 22:29:00,35.8,35.0,30.18,NNE,21,0.0,6.0,97,0.00,,,0.01,Wunderground v.1.15,2013-01-21 06:29:00,
2013-01-20 22:35:00,35.5,34.5,30.18,NNE,21,0.0,6.0,96,0.00,,,0.01,Wunderground v.1.15,2013-01-21 06:35:00,
2013-01-20 22:40:00,35.1,34.1,30.18,NNE,21,1.0,6.0,96,0.00,,,0.01,Wunderground v.1.15,2013-01-21 06:40:00,
2013-01-20 22:46:00,34.4,33.4,30.18,NNE,21,1.0,6.0,96,0.00,,,0.01,Wunderground v.1.15,2013-01-21 06:46:00,
2013-01-20 22:51:00,34.4,33.6,30.18,NNE,21,1.0,6.0,97,0.00,,,0.01,Wunderground v.1.15,2013-01-21 06:51:00,
2013-01-20 22:56:00,34.7,33.9,30.18,NNE,21,1.0,6.0,97,0.00,,,0.01,Wunderground v.1.15,2013-01-21 06:56:00,
2013-01-20 23:01:00,34.8,34.0,30.18,NNE,21,2.0,6.0,97,0.00,,,0.01,Wunderground v.1.15,2013-01-21 07:01:00,
2013-01-20 23:07:00,35.0,34.2,30.18,NNE,21,3.0,6.0,97,0.00,,,0.01,Wunderground v.1.15,2013-01-21 07:07:00,
2013-01-20 23:13:00,35.2,34.4,30.18,NNE,21,3.0,6.0,97,0.00,,,0.01,Wunderground v.1.15,2013-01-21 07:13:00,
2013-01-20 23:19:00,35.6,34.8,30.18,NNE,21,2.0,6.0,97,0.00,,,0.01,Wunderground v.1.15,2013-01-21 07:19:00,
2013-01-20 23:25:00,35.5,34.7,30.18,NNE,21,1.0,6.0,97,0.00,,,0.01,Wunderground v.1.15,2013-01-21 07:25:00,
2013-01-20 23:31:00,35.1,34.1,30.18,NNE,21,1.0,6.0,96,0.00,,,0.01,Wunderground v.1.15,2013-01-21 07:31:00,
2013-01-20 23:37:00,34.5,33.5,30.18,NNE,21,0.0,6.0,96,0.00,,,0.01,Wunderground v.1.15,2013-01-21 07:37:00,
2013-01-20 23:43:00,33.9,32.9,30.18,NNE,21,0.0,6.0,96,0.00,,,0.01,Wunderground v.1.15,2013-01-21 07:43:00,
2013-01-20 23:48:00,33.5,32.5,30.18,NNE,21,0.0,6.0,96,0.00,,,0.01,Wunderground v.1.15,2013-01-21 07:48:00,
2013-01-20 23:54:00,33.6,32.8,30.18,NNE,21,0.0,6.0,97,0.00,,,0.01,Wunderground v.1.15,2013-01-21 07:54:00,
2013-01-20 23:59:00,33.8,33.0,30.18,NNE,21,1.0,6.0,97,0.00,,,0.01,Wunderground v.1.15,2013-01-21 07:59:00,